EW0754 Weather Reports


time (UTC)temp
C
wind
direction
speed
KPH
gust
KPH
rain 1hr
cm
rain 24hr
cm
rain mn
cm
humidity
%
barometer
mb
20260504030404 12 278 16.1 40.2 0.00 0.05 0.05 55 1008.1
20260504025403 12 277 19.3 33.8 0.00 0.05 0.05 55 1008.0
20260504024403 12 275 17.7 35.4 0.00 0.05 0.05 56 1008.0
20260504023404 11 263 11.3 22.5 0.00 0.05 0.05 58 1008.0
20260504022904 11 280 14.5 33.8 0.00 0.05 0.05 58 1008.1
20260504021903 11 261 11.3 25.7 0.00 0.05 0.05 58 1008.1
20260504021404 11 272 14.5 24.1 0.00 0.05 0.05 58 1008.1
20260504020904 11 260 11.3 22.5 0.00 0.05 0.05 58 1008.1
20260504020404 11 266 14.5 22.5 0.00 0.05 0.05 57 1008.1
20260504015903 11 282 11.3 20.9 0.00 0.05 0.05 58 1008.2
20260504014404 12 269 14.5 24.1 0.00 0.05 0.05 56 1008.2
20260504013904 12 275 19.3 33.8 0.00 0.05 0.05 56 1008.2
20260504013404 12 274 12.9 22.5 0.00 0.05 0.05 57 1008.3
20260504012904 11 276 12.9 20.9 0.00 0.05 0.05 57 1008.3
20260504012404 11 271 11.3 19.3 0.00 0.05 0.05 58 1008.3
20260504011904 11 260 12.9 27.4 0.00 0.05 0.05 58 1008.4
20260504011403 11 274 17.7 27.4 0.00 0.05 0.05 58 1008.4
20260504010904 11 282 16.1 27.4 0.00 0.05 0.05 59 1008.3
20260504010404 11 265 14.5 25.7 0.00 0.05 0.05 59 1008.3
20260504005903 11 268 12.9 24.1 0.00 0.05 0.05 60 1008.3
20260504004904 11 269 9.7 19.3 0.00 0.05 0.05 61 1008.4
20260504003903 11 273 4.8 16.1 0.03 0.05 0.05 63 1008.4
20260504003403 11 255 9.7 19.3 0.03 0.05 0.05 63 1008.4
20260504001904 10 259 4.8 11.3 0.03 0.05 0.05 67 1008.5
20260504001403 10 258 6.4 12.9 0.03 0.05 0.05 68 1008.5
20260504000904 10 258 6.4 9.7 0.03 0.05 0.05 70 1008.4
20260503235904 10 258 3.2 4.8 0.03 0.05 0.05 74 1008.5
20260503235403 10 238 3.2 8.0 0.03 0.05 0.05 74 1008.7
20260503234903 9 256 3.2 4.8 0.05 0.05 0.05 76 1008.8
20260503233404 9 299 1.6 4.8 0.03 0.03 0.03 80 1009.1
20260503232404 9 294 4.8 8.0 0.03 0.03 0.03 78 1009.1
20260503231903 10 295 8.0 12.9 0.03 0.03 0.03 77 1009.2
20260503231404 10 307 8.0 11.3 0.03 0.03 0.03 75 1009.2
20260503230903 10 295 8.0 12.9 0.03 0.03 0.03 76 1009.2
20260503225904 10 303 8.0 12.9 0.03 0.03 0.03 74 1009.2
20260503225404 10 316 6.4 9.7 0.03 0.03 0.03 72 1009.1
20260503223903 10 299 11.3 24.1 0.00 0.00 0.00 69 1009.3
20260503222903 11 301 16.1 20.9 0.00 0.00 0.00 66 1009.2
20260503222403 11 302 14.5 25.7 0.00 0.00 0.00 65 1009.1
20260503221903 11 295 16.1 25.7 0.00 0.00 0.00 65 1009.1
20260503221404 11 288 16.1 27.4 0.00 0.00 0.00 63 1009.0
20260503220903 11 276 12.9 22.5 0.00 0.00 0.00 63 1008.8
20260503220403 11 283 12.9 24.1 0.00 0.00 0.00 63 1008.8
20260503215904 11 273 9.7 24.1 0.00 0.00 0.00 62 1008.7
20260503213903 11 253 9.7 20.9 0.00 0.00 0.00 63 1008.6
20260503213403 11 264 8.0 29.0 0.00 0.00 0.00 63 1008.6
20260503212904 11 276 11.3 20.9 0.00 0.00 0.00 62 1008.6
20260503212404 11 263 14.5 24.1 0.00 0.00 0.00 61 1008.5
20260503211904 11 265 12.9 27.4 0.00 0.00 0.00 62 1008.5
20260503211404 11 285 14.5 27.4 0.00 0.00 0.00 61 1008.6
20260503210904 11 263 14.5 22.5 0.00 0.00 0.00 61 1008.6
20260503205904 11 269 14.5 22.5 0.00 0.00 0.00 61 1008.6
20260503205404 11 272 11.3 16.1 0.00 0.00 0.00 60 1008.7
20260503204903 11 265 11.3 22.5 0.00 0.00 0.00 60 1008.7
20260503204403 11 268 12.9 24.1 0.00 0.00 0.00 60 1008.7
20260503203403 11 269 16.1 27.4 0.00 0.00 0.00 59 1008.8
20260503202404 11 260 12.9 25.7 0.00 0.00 0.00 59 1008.9
20260503201904 11 282 16.1 33.8 0.00 0.00 0.00 59 1008.9
20260503201404 12 250 11.3 19.3 0.00 0.00 0.00 59 1008.9
20260503200904 12 257 12.9 22.5 0.00 0.00 0.00 58 1009.0
20260503200404 12 268 11.3 22.5 0.00 0.00 0.00 58 1009.0
20260503194904 12 252 14.5 29.0 0.00 0.00 0.00 57 1009.4
20260503194404 12 270 14.5 24.1 0.00 0.00 0.00 57 1009.5
20260503193903 12 259 16.1 32.2 0.00 0.00 0.00 55 1009.6
20260503192903 12 263 16.1 32.2 0.00 0.00 0.00 56 1009.7
20260503192404 12 270 16.1 25.7 0.00 0.00 0.00 55 1009.8
20260503191904 12 273 20.9 35.4 0.00 0.00 0.00 57 1009.9
20260503191403 12 278 22.5 41.8 0.00 0.00 0.00 53 1010.0
20260503185903 11 266 19.3 33.8 0.00 0.00 0.00 51 1010.2
20260503185404 12 276 19.3 35.4 0.00 0.00 0.00 51 1010.3
20260503184904 12 273 19.3 29.0 0.00 0.00 0.00 50 1010.3
20260503184403 12 273 19.3 33.8 0.00 0.00 0.00 51 1010.4
20260503183904 12 276 17.7 32.2 0.00 0.00 0.00 51 1010.5
20260503183403 11 264 20.9 35.4 0.00 0.00 0.00 50 1010.6
20260503181903 11 266 12.9 32.2 0.00 0.00 0.00 53 1010.9
20260503181404 11 272 9.7 29.0 0.00 0.00 0.00 56 1011.0
20260503180904 11 284 14.5 29.0 0.00 0.00 0.00 57 1011.1
20260503180404 11 294 16.1 32.2 0.00 0.00 0.00 52 1011.1
20260503175903 11 259 12.9 25.7 0.00 0.00 0.00 54 1011.1
20260503175403 11 298 17.7 33.8 0.00 0.00 0.00 53 1011.1
20260503174904 11 253 14.5 29.0 0.00 0.00 0.00 55 1011.2
20260503174404 11 283 17.7 35.4 0.00 0.00 0.00 57 1011.3
20260503173404 11 248 16.1 32.2 0.00 0.00 0.00 53 1011.6
20260503172904 11 294 20.9 37.0 0.00 0.00 0.00 48 1011.6
20260503172404 11 258 12.9 27.4 0.00 0.00 0.00 50 1011.6
20260503171903 11 272 16.1 27.4 0.00 0.00 0.00 51 1011.7
20260503171403 10 288 14.5 25.7 0.00 0.00 0.00 52 1011.7
20260503170904 10 271 14.5 25.7 0.00 0.00 0.00 50 1011.9
20260503150904 9 308 8.0 16.1 0.00 0.00 0.00 64 1012.8
20260503150403 9 306 16.1 22.5 0.00 0.00 0.00 63 1012.9
20260503131404 6 259 11.3 19.3 0.00 0.00 0.00 74 1013.4
20260503130903 6 273 8.0 16.1 0.00 0.00 0.00 75 1013.5
20260503130403 6 265 8.0 16.1 0.00 0.00 0.00 75 1013.5
20260503110404 0 214 1.6 3.2 0.00 0.00 0.00 78 1013.7
20260503080903 1 282 1.6 4.8 0.00 0.00 0.00 81 1013.9
20260503080403 1 295 1.6 4.8 0.00 0.00 0.00 81 1013.9
20260503072903 1 241 0.0 1.6 0.00 0.00 0.00 82 1013.7
20260503072403 1 237 0.0 1.6 0.00 0.00 0.00 82 1013.7
20260503071903 1 236 0.0 1.6 0.00 0.00 0.00 82 1013.8
20260503071403 1 240 0.0 1.6 0.00 0.00 0.00 82 1013.8
20260503070904 1 257 0.0 1.6 0.00 0.00 0.00 82 1013.8
20260503070404 1 258 0.0 1.6 0.00 0.00 0.00 82 1013.8
20260503054903 2 245 0.0 4.8 0.00 0.00 0.00 79 1014.0
20260503053404 2 210 1.6 3.2 0.00 0.00 0.00 78 1014.1
20260503052904 2 214 1.6 1.6 0.00 0.00 0.00 77 1014.2
20260503052404 2 207 1.6 4.8 0.00 0.00 0.00 77 1014.2
20260503051904 2 228 1.6 4.8 0.00 0.00 0.00 77 1014.2
20260503051404 2 274 1.6 3.2 0.00 0.00 0.00 77 1014.3
20260503050903 2 230 0.0 4.8 0.00 0.00 0.00 77 1014.3
20260503050403 2 234 0.0 3.2 0.00 0.00 0.00 77 1014.3
20260503045904 2 252 0.0 1.6 0.00 0.00 0.00 77 1014.3
20260503045404 2 238 0.0 1.6 0.00 0.00 0.00 76 1014.4
20260503044403 2 252 0.0 1.6 0.00 0.00 0.00 76 1014.3
20260503043904 3 252 0.0 1.6 0.00 0.00 0.00 76 1014.4
20260503043403 3 219 0.0 1.6 0.00 0.00 0.00 75 1014.4
20260503042404 3 252 0.0 1.6 0.00 0.00 0.00 75 1014.5
20260503041903 3 243 0.0 1.6 0.00 0.00 0.00 75 1014.5
20260503041403 3 242 0.0 1.6 0.00 0.00 0.00 75 1014.6
20260503040404 3 252 0.0 1.6 0.00 0.00 0.00 75 1014.6
20260503035903 3 255 0.0 1.6 0.00 0.00 0.00 75 1014.6
20260503035403 3 245 1.6 3.2 0.00 0.00 0.00 74 1014.6
20260503034903 3 238 0.0 1.6 0.00 0.00 0.00 74 1014.6
20260503034404 3 264 0.0 1.6 0.00 0.00 0.00 74 1014.6
20260503033903 3 250 0.0 1.6 0.00 0.00 0.00 74 1014.7
20260503033403 3 246 0.0 1.6 0.00 0.00 0.00 74 1014.7
20260503032404 3 256 0.0 1.6 0.00 0.00 0.00 74 1014.7
20260503031904 3 260 0.0 1.6 0.00 0.00 0.00 74 1014.7
20260503031404 3 255 0.0 3.2 0.00 0.00 0.00 74 1014.7
20260503030903 4 264 0.0 1.6 0.00 0.00 0.00 74 1014.7